カタログに戻る

BREEZE-M DEB

LostHEO
NORAD 35541·DEBRIS·🇷🇺 Russia

打ち上げ Feb 28, 2006 から Baikonur Cosmodrome

Loading…

次のパス (今後24時間)

TLE

古いSource: Space-Track

元期: Jan 3, 2024, 11:15 UTC

1 35541U 06006CJ  24003.46914709  .00002038  00000-0  28515-2 0  9995
2 35541  51.4775 165.8772 5112172 232.6786  68.9991  5.22092224295565

AllMySatでBREEZE-M DEBをリアルタイム追跡

Download on the App Store